FW4179 Weather Reports


Display with metric or nautical units.
time (UTC)temp
F
wind
direction
speed
MPH
gust
MPH
rain 1hr
in
rain 24hr
in
rain mn
in
humidity
%
barometer
mb
20260504194546 76 286 5.0 10.0 0.00 0.00 0.00 51 1013.1
20260504193046 76 226 3.0 10.0 0.00 0.00 0.00 57 1013.3
20260504191557 75 219 3.0 9.0 0.00 0.00 0.00 59 1013.5
20260504190050 76 219 3.0 10.0 0.00 0.00 0.00 55 1013.7
20260504184546 76 205 4.0 8.0 0.00 0.00 0.00 55 1013.9
20260504183046 75 213 4.0 10.0 0.00 0.00 0.00 60 1014.0
20260504181557 74 191 3.0 7.0 0.00 0.00 0.00 58 1014.0
20260504180055 74 212 3.0 7.0 0.00 0.00 0.00 58 1014.1
20260504174546 73 209 2.0 10.0 0.00 0.00 0.00 62 1014.2
20260504173051 72 211 4.0 11.0 0.00 0.00 0.00 61 1014.3
20260504171555 72 235 4.0 8.0 0.00 0.00 0.00 63 1014.7
20260504081550 49 148 1.0 3.0 0.00 0.00 0.00 78 1016.1
20260504044551 52 0 0.0 4.0 0.00 0.01 0.01 72 1016.9
20260504043052 52 0 0.0 3.0 0.00 0.01 0.01 72 1016.8
20260504041548 52 149 1.0 4.0 0.00 0.01 0.01 72 1016.9
20260504040104 52 149 1.0 4.0 0.00 0.01 0.01 72 1017.1
20260504034610 52 0 0.0 4.0 0.00 0.01 0.01 71 1017.3
20260504033048 53 0 0.0 2.0 0.00 0.01 0.01 69 1017.5
20260504031546 53 0 0.0 2.0 0.00 0.01 0.01 68 1017.5
20260504030104 53 0 0.0 1.0 0.00 0.01 0.01 67 1017.4
20260504024541 54 0 0.0 0.0 0.00 0.01 0.01 66 1017.3
20260504023049 55 0 0.0 0.0 0.00 0.01 0.01 64 1017.2
20260504021552 55 0 0.0 1.0 0.00 0.01 0.01 63 1017.0
20260504020051 55 0 0.0 0.0 0.00 0.01 0.01 62 1016.8
20260504014544 55 0 0.0 3.0 0.00 0.01 0.01 62 1016.4
20260504013053 56 0 0.0 0.0 0.00 0.01 0.01 60 1016.4
20260504011547 57 0 0.0 0.0 0.00 0.01 0.01 58 1016.2
20260504010050 58 0 0.0 0.0 0.00 0.01 0.01 57 1016.4
20260504004547 58 0 0.0 0.0 0.00 0.02 0.01 56 1016.4
20260504003044 59 0 0.0 0.0 0.00 0.02 0.01 55 1016.3
20260504001600 60 0 0.0 0.0 0.00 0.02 0.01 53 1016.8
20260504000047 61 0 0.0 0.0 0.00 0.02 0.01 51 1016.9
20260503234547 62 0 0.0 4.0 0.00 0.02 0.01 50 1017.1
20260503233046 62 263 2.0 6.0 0.00 0.02 0.01 46 1017.0
20260503231553 63 236 3.0 5.0 0.00 0.02 0.01 48 1016.9
20260503230045 64 0 1.0 4.0 0.00 0.02 0.01 49 1017.1
20260503224541 64 0 0.0 3.0 0.00 0.02 0.01 46 1017.3
20260503223048 64 223 1.0 5.0 0.00 0.02 0.01 45 1017.5
20260503221548 64 308 2.0 4.0 0.00 0.02 0.01 41 1017.7
20260503220049 65 265 2.0 6.0 0.00 0.02 0.01 41 1017.8
20260503214543 65 311 2.0 6.0 0.00 0.02 0.01 43 1017.9
20260503213046 65 277 2.0 6.0 0.00 0.02 0.01 46 1018.1
20260503211555 65 271 3.0 7.0 0.00 0.02 0.01 46 1018.2
20260503210047 64 0 1.0 10.0 0.00 0.02 0.01 46 1018.3
20260503204554 64 256 3.0 8.0 0.00 0.02 0.01 46 1018.5
20260503203049 64 255 3.0 7.0 0.00 0.02 0.01 50 1018.6
20260503201548 64 273 2.0 7.0 0.00 0.02 0.01 50 1019.1
20260503200052 63 263 1.0 8.0 0.00 0.02 0.01 54 1019.3